Wind_Speed
18 16 18 17 18 22 25 23 23 25 31 28 26 25 22 22 24 24 24 25 26 27 29 29 32 33 34 34 35 36 38 38
23 21 20 20 21 21 23 24 24 22 24 28 28 28 28 26 27 28 29 29 29 28 30 31 31 32 33 35 37 38 39 40
27 26 25 25 25 26 27 28 29 29 29 29 30 31 32 33 34 35 35 35 34 35 34 34 34 36 36 36 38 39 41 42
28 27 25 24 24 25 27 28 29 31 33 35 37 38 36 37 39 40 42 42 42 41 40 41 42 39 40 39 40 41 42 43
24 21 20 21 23 23 25 27 29 30 30 32 32 34 34 33 37 40 42 45 47 48 47 47 47 45 45 44 44 44 45 45
21 22 25 26 25 24 24 25 26 28 29 30 31 30 31 30 27 28 30 34 38 40 47 51 51 50 50 52 51 49 48 50
26 27 26 26 24 24 25 26 27 26 25 27 31 35 37 39 38 37 36 35 36 37 37 41 48 54 55 55 54 54 52 52
28 28 26 25 26 25 26 26 27 29 32 34 37 39 41 42 45 47 46 45 44 43 42 42 43 45 53 58 59 58 57 57
29 28 28 27 26 27 29 32 35 38 40 43 45 49 50 46 43 43 45 46 47 45 44 45 47 47 49 50 57 60 58 61
31 30 29 30 32 36 40 40 42 46 51 54 54 50 48 46 43 42 42 44 46 48 49 48 49 52 54 55 55 57 59 61
32 32 32 33 36 37 39 43 50 53 54 51 49 46 45 44 44 44 41 40 43 48 52 53 53 54 57 58 51 58 57 63
30 30 32 34 38 42 47 50 49 46 45 45 42 40 41 42 43 41 40 39 39 42 47 50 52 56 59 59 55 55 55 58
29 30 37 41 45 47 44 41 39 38 39 39 38 35 34 36 36 36 35 35 36 39 40 44 49 51 50 55 47 46 50 54
34 43 42 45 43 38 35 34 34 34 35 35 33 31 28 29 32 31 33 35 39 39 41 38 39 43 52 41 46 51 46 46
38 42 41 35 32 30 32 33 33 32 30 30 29 29 26 26 29 31 35 37 41 42 31 32 37 42 45 47 47 39 42 40
39 35 32 31 29 30 31 33 33 32 30 28 28 27 27 28 30 31 34 38 36 30 31 32 33 39 44 50 51 39 40 41
32 31 30 30 29 28 31 32 29 29 29 28 29 28 28 30 32 32 35 27 25 26 23 23 28 24 21 30 33 35 32 29
28 28 30 29 30 31 32 32 29 30 29 28 28 29 28 28 29 28 15 16 22 22 17 13 12 10 8 5 9 16 21 23
28 28 27 27 28 30 32 32 29 29 27 30 29 28 24 20 13 12 13 17 19 19 16 12 11 11 11 10 9 10 12 15
Wind_Direction
248 241 230 225 229 235 235 238 244 247 242 243 248 246 246 249 251 253 256 254 255 259 260 255 255 258 259 257 257 257 256 256
252 250 246 240 238 237 238 240 245 247 241 240 242 242 243 244 246 247 252 255 253 255 257 259 255 257 257 258 256 255 255 257
257 253 249 247 246 244 243 243 248 250 249 249 249 249 249 248 247 247 249 251 250 251 251 254 257 258 259 259 260 257 256 256
250 251 251 252 252 251 251 252 253 254 254 254 254 254 252 253 254 254 254 253 253 252 252 255 256 255 257 261 264 262 258 255
243 245 250 253 255 256 255 255 255 254 254 255 257 260 262 261 260 260 261 262 258 257 254 250 251 252 254 256 258 261 261 258
236 246 252 251 246 246 249 251 252 254 255 256 258 258 259 256 259 261 263 265 266 267 263 256 253 252 250 253 251 252 255 258
240 245 242 241 242 251 257 259 259 256 256 265 269 270 270 273 274 272 267 267 268 269 268 266 256 249 249 248 251 251 252 254
241 245 246 251 264 268 269 268 267 264 264 274 285 288 286 281 279 279 280 278 274 271 270 268 265 263 255 250 249 252 251 254
245 245 251 260 268 273 275 274 274 279 283 285 284 289 292 292 289 285 281 277 275 271 265 262 261 258 256 253 255 252 253 257
241 248 260 273 279 280 280 283 287 289 291 293 295 295 295 295 293 289 283 277 272 268 266 262 258 258 256 255 247 248 251 253
248 259 269 273 275 277 281 287 292 293 294 295 298 300 299 296 293 289 284 277 267 262 260 258 258 259 260 258 254 250 248 249
256 265 269 271 275 278 283 288 292 293 294 296 298 296 289 285 283 283 282 279 273 266 264 262 260 257 257 255 254 250 248 246
257 262 273 274 282 291 294 292 295 298 299 298 299 297 294 286 282 280 281 284 286 285 281 269 261 262 259 252 249 251 250 251
277 286 288 291 293 295 297 298 299 301 302 299 300 301 304 289 288 283 284 288 289 286 283 276 270 269 266 251 249 246 251 249
287 290 295 296 297 300 298 297 296 300 300 295 296 295 296 290 285 287 286 286 289 292 288 283 278 270 262 251 257 255 249 243
291 293 294 295 296 295 294 295 294 296 296 290 292 293 285 285 283 282 288 290 291 290 280 282 287 279 259 254 253 259 242 243
289 291 294 294 293 294 294 294 291 293 292 292 288 289 280 277 280 286 287 288 284 299 294 287 291 281 268 252 255 248 241 230
286 287 290 294 294 296 296 298 293 295 293 287 285 283 276 278 283 285 280 293 283 296 313 300 328 334 332 286 210 214 222 228
284 289 294 297 299 297 299 301 293 290 291 285 279 277 277 277 264 268 287 291 295 304 309 315 312 320 316 304 274 238 233 222
Height
3113 3113 3114 3114 3115 3116 3117 3119 3120 3121 3122 3123 3125 3125 3126 3126 3126 3127 3127 3126 3126 3126 3127 3127 3128 3128 3129 3129 3130 3132 3132 3132
3106 3108 3109 3110 3111 3112 3114 3115 3115 3115 3115 3116 3117 3118 3119 3120 3119 3119 3119 3119 3120 3120 3121 3120 3121 3121 3121 3122 3122 3122 3123 3125
3098 3099 3102 3103 3105 3106 3107 3108 3109 3109 3110 3111 3112 3112 3112 3112 3112 3112 3112 3112 3111 3112 3112 3112 3113 3113 3113 3113 3113 3114 3114 3115
3091 3092 3094 3096 3098 3099 3100 3100 3101 3102 3102 3103 3104 3103 3104 3104 3103 3104 3104 3103 3103 3103 3105 3105 3105 3105 3105 3105 3105 3105 3105 3104
3086 3088 3089 3090 3091 3092 3092 3092 3093 3093 3093 3093 3094 3094 3094 3095 3095 3095 3094 3094 3093 3093 3094 3094 3094 3095 3096 3096 3096 3096 3095 3094
3081 3083 3084 3084 3085 3085 3086 3087 3087 3086 3086 3085 3084 3083 3083 3083 3083 3083 3083 3083 3082 3082 3082 3083 3083 3083 3084 3082 3083 3084 3085 3083
3073 3075 3075 3077 3078 3079 3080 3080 3080 3080 3079 3079 3078 3077 3076 3075 3075 3074 3074 3072 3072 3071 3070 3070 3069 3070 3070 3071 3071 3071 3073 3073
3067 3069 3070 3071 3072 3072 3072 3072 3072 3071 3070 3070 3069 3068 3066 3065 3064 3063 3061 3061 3061 3061 3059 3058 3057 3058 3059 3058 3058 3059 3061 3059
3061 3063 3064 3065 3065 3065 3065 3065 3064 3062 3061 3059 3057 3055 3053 3053 3052 3051 3049 3047 3045 3044 3044 3044 3043 3042 3043 3045 3046 3045 3046 3046
3055 3056 3057 3057 3056 3056 3055 3054 3052 3050 3048 3045 3044 3042 3040 3038 3037 3036 3034 3033 3031 3030 3029 3028 3028 3027 3027 3027 3028 3029 3030 3031
3049 3050 3051 3051 3050 3049 3047 3045 3042 3040 3036 3033 3031 3030 3027 3024 3021 3019 3018 3017 3016 3014 3012 3012 3012 3013 3014 3012 3013 3013 3014 3014
3044 3045 3045 3044 3043 3041 3039 3037 3033 3031 3028 3024 3022 3019 3015 3012 3008 3006 3004 3003 3002 3001 2999 2996 2993 2994 2995 2994 2996 2997 2997 2999
3038 3038 3038 3036 3034 3032 3029 3025 3021 3017 3013 3011 3007 3004 3002 2999 2996 2994 2994 2993 2991 2988 2986 2981 2978 2977 2977 2977 2980 2981 2982 2984
3029 3028 3027 3025 3023 3020 3017 3014 3009 3006 3002 2999 2996 2994 2990 2989 2987 2986 2983 2981 2979 2976 2972 2968 2965 2965 2964 2961 2961 2964 2968 2968
3019 3017 3015 3014 3012 3009 3007 3003 3000 2998 2994 2991 2988 2986 2983 2982 2979 2977 2974 2971 2968 2964 2961 2957 2954 2951 2949 2950 2949 2946 2949 2954
3008 3008 3005 3004 3003 3001 2998 2994 2990 2988 2985 2982 2980 2978 2976 2973 2971 2968 2966 2963 2960 2955 2953 2950 2945 2941 2937 2937 2936 2936 2939 2943
2999 2999 2996 2994 2993 2991 2989 2986 2983 2980 2976 2974 2971 2969 2968 2965 2963 2961 2958 2956 2953 2950 2946 2942 2940 2933 2926 2926 2929 2929 2934 2936
2991 2991 2989 2987 2985 2983 2981 2977 2974 2972 2968 2966 2963 2961 2959 2958 2956 2954 2952 2951 2950 2947 2944 2939 2936 2931 2928 2927 2926 2927 2931 2935
2983 2983 2982 2979 2977 2975 2972 2968 2965 2963 2961 2959 2956 2955 2953 2952 2950 2950 2948 2947 2946 2945 2942 2939 2936 2933 2931 2929 2928 2929 2930 2932